EW7714 Weather Reports


time (UTC)temp
F
wind
direction
speed
knots
gust
knots
rain 1hr
in
rain 24hr
in
rain mn
in
humidity
%
barometer
mb
20260906024613 78 212 0.0 0.0 0.00 0.05 0.05 98 1011.6
20260906023104 78 212 0.0 0.0 0.00 0.05 0.05 98 1011.5
20260906023004 78 212 0.0 0.0 0.00 0.05 0.05 98 1011.8
20260906023000 78 212 0.0 0.0 0.00 0.05 0.05 98 1011.4
20260906022003 78 212 0.0 0.0 0.00 0.05 0.05 98 1011.5
20260906021600 78 212 0.0 0.0 0.00 0.05 0.05 98 1011.1
20260906021003 78 212 0.0 0.0 0.00 0.05 0.05 98 1011.4
20260906020101 78 212 0.0 0.0 0.00 0.05 0.05 98 1011.0
20260906020004 78 212 0.0 0.0 0.00 0.05 0.05 98 1011.3
20260906020000 78 212 0.0 0.0 0.00 0.05 0.05 98 1011.0
20260906015004 78 212 0.0 0.0 0.00 0.05 0.05 98 1011.2
20260906014559 78 212 0.0 0.0 0.00 0.05 0.05 97 1010.9
20260906014002 79 212 0.0 0.9 0.00 0.05 0.05 97 1011.2
20260906013109 79 212 0.0 0.9 0.00 0.05 0.05 97 1010.8
20260906013003 79 212 0.0 0.9 0.00 0.05 0.05 97 1011.1
20260906012002 79 212 0.0 2.6 0.00 0.05 0.05 97 1011.1
20260906011559 79 212 0.0 0.9 0.00 0.05 0.05 97 1010.8
20260906011003 79 212 0.0 1.7 0.00 0.05 0.05 97 1011.3
20260906010059 79 209 0.0 0.9 0.00 0.05 0.05 97 1011.0
20260906010007 79 209 0.0 0.9 0.00 0.05 0.05 97 1011.4
20260906010002 79 209 0.0 0.9 0.00 0.05 0.05 97 1011.1
20260906005003 80 209 0.0 0.9 0.00 0.05 0.05 97 1011.3
20260906004600 80 209 0.0 0.9 0.00 0.05 0.05 97 1011.0
20260906004002 80 209 0.0 0.9 0.00 0.05 0.05 97 1011.4
20260906003100 80 209 0.0 0.0 0.00 0.05 0.05 96 1011.0
20260906003003 80 209 0.0 0.0 0.00 0.05 0.05 96 1011.3
20260906002002 81 209 0.0 0.0 0.00 0.05 0.05 96 1011.3
20260906001607 81 209 0.0 0.0 0.00 0.05 0.05 96 1010.9
20260906000059 81 209 0.0 0.0 0.00 0.05 0.05 96 1011.0
20260906000003 81 209 0.0 0.0 0.00 0.05 0.05 96 1011.4
20260905235003 82 209 0.0 0.0 0.00 0.05 0.05 96 1011.4
20260905234559 82 209 0.0 0.0 0.00 0.05 0.05 96 1011.0
20260905233103 82 209 0.0 0.0 0.00 0.05 0.05 96 1010.9
20260905233003 82 209 0.0 0.0 0.00 0.05 0.05 96 1011.2
20260905232002 82 209 0.0 0.0 0.00 0.05 0.05 95 1011.3
20260905231600 82 209 0.0 0.9 0.00 0.05 0.05 95 1010.9
20260905231002 82 209 0.0 1.7 0.00 0.05 0.05 95 1011.3
20260905230106 82 209 0.0 0.9 0.00 0.05 0.05 95 1010.8
20260905230005 82 209 0.0 0.9 0.00 0.05 0.05 95 1011.2
20260905230002 82 209 0.0 0.9 0.00 0.05 0.05 95 1010.8
20260905225002 82 209 0.0 1.7 0.00 0.05 0.05 96 1011.2
20260905224616 82 209 0.0 0.9 0.00 0.05 0.05 96 1010.8
20260905224001 81 209 0.0 0.9 0.00 0.05 0.05 97 1011.2
20260905223113 81 209 0.0 0.0 0.00 0.05 0.05 96 1010.7
20260905223003 81 209 0.0 0.9 0.00 0.05 0.05 97 1011.1
20260905222003 81 209 0.0 0.9 0.00 0.05 0.05 97 1011.4
20260905221604 81 209 0.0 0.9 0.00 0.05 0.05 97 1011.1
20260905221003 80 209 0.0 1.7 0.00 0.05 0.05 97 1011.5
20260905220059 79 209 0.0 0.9 0.00 0.05 0.05 97 1011.0
20260905220002 79 209 0.0 0.9 0.00 0.05 0.05 98 1011.3
20260905215002 78 209 0.0 0.0 0.01 0.05 0.05 96 1011.4
20260905214601 78 209 0.0 1.7 0.01 0.05 0.05 96 1011.1
20260905214003 78 209 0.0 1.7 0.01 0.05 0.05 95 1011.6
20260905213103 78 209 0.9 2.6 0.01 0.05 0.05 94 1011.3
20260905213001 78 209 0.9 2.6 0.01 0.05 0.05 94 1011.7
20260905212001 79 186 0.9 1.7 0.01 0.05 0.05 94 1011.8
20260905211558 79 184 0.9 1.7 0.02 0.05 0.05 93 1011.5
20260905210105 80 186 0.0 2.6 0.03 0.05 0.05 93 1011.5
20260905210002 80 169 0.0 2.6 0.03 0.05 0.05 93 1011.5
20260905205002 81 134 0.9 5.2 0.03 0.04 0.04 92 1011.7
20260905204601 81 133 0.0 5.2 0.03 0.04 0.04 93 1011.5
20260905204002 81 146 0.9 4.3 0.03 0.04 0.04 94 1011.9
20260905203100 82 219 0.0 2.6 0.03 0.04 0.04 94 1011.4
20260905203003 82 219 0.9 2.6 0.03 0.04 0.04 95 1011.8
20260905202002 82 204 1.7 3.5 0.03 0.04 0.04 94 1011.9
20260905201559 82 232 0.9 3.5 0.02 0.03 0.03 93 1011.5
20260905201002 83 233 1.7 4.3 0.02 0.03 0.03 91 1011.9
20260905200104 84 215 1.7 5.2 0.01 0.02 0.02 89 1011.5
20260905200002 84 211 1.7 5.2 0.00 0.01 0.01 89 1011.9
20260905195001 86 82 0.0 1.7 0.00 0.01 0.01 88 1012.0
20260905194558 86 78 0.0 1.7 0.00 0.01 0.01 86 1011.8
20260905194002 85 78 0.0 1.7 0.00 0.01 0.01 87 1012.1
20260905193058 85 78 0.0 0.9 0.00 0.01 0.01 90 1011.8
20260905193002 85 78 0.9 0.9 0.00 0.01 0.01 89 1012.2
20260905192002 85 78 0.0 0.9 0.00 0.01 0.01 87 1012.4
20260905191606 86 78 0.0 0.9 0.00 0.01 0.01 86 1012.2
20260905191002 86 78 0.0 1.7 0.00 0.01 0.01 86 1012.6
20260905190103 86 78 0.0 1.7 0.00 0.01 0.01 84 1012.4
20260905190001 87 78 0.9 1.7 0.00 0.01 0.01 83 1012.7
20260905185002 88 82 0.9 1.7 0.00 0.01 0.01 82 1012.8
20260905184603 88 82 0.0 2.6 0.00 0.01 0.01 83 1012.5
20260905183100 88 172 0.0 2.6 0.00 0.01 0.01 82 1012.7
20260905183000 87 173 0.9 2.6 0.00 0.01 0.01 82 1013.1
20260905181558 86 165 0.0 4.3 0.00 0.01 0.01 85 1012.8
20260905181002 85 139 0.9 2.6 0.00 0.01 0.01 87 1013.2
20260905180105 85 136 0.0 1.7 0.00 0.01 0.01 87 1013.2
20260905180001 85 136 0.0 1.7 0.00 0.01 0.01 88 1013.2
20260905175002 86 136 0.9 2.6 0.00 0.29 0.01 85 1013.5
20260905174600 86 136 0.0 2.6 0.00 0.28 0.01 84 1013.2
20260905174002 86 105 0.0 2.6 0.00 0.29 0.01 82 1013.6
20260905173125 86 32 0.0 2.6 0.00 0.28 0.01 82 1013.3
20260905173003 86 32 0.9 2.6 0.00 0.29 0.01 82 1013.6
20260905172004 88 12 1.7 2.6 0.00 0.29 0.01 80 1013.5
20260905171600 89 327 0.0 7.0 0.00 0.28 0.01 79 1013.3
20260905171003 90 88 1.7 7.0 0.00 0.29 0.01 78 1013.7
20260905170112 88 88 0.0 4.3 0.00 0.28 0.01 82 1013.5
20260905170003 88 88 1.7 4.3 0.00 1.37 0.01 82 1013.8
20260905165002 86 292 1.7 6.1 0.00 1.37 0.01 85 1013.8
20260905164605 86 292 0.9 6.1 0.00 1.37 0.01 84 1013.5
20260905164002 85 34 0.9 5.2 0.00 1.37 0.01 86 1013.9
20260905163105 84 355 0.0 1.7 0.00 1.37 0.01 90 1013.7
20260905161609 81 261 0.0 0.0 0.00 1.37 0.01 94 1013.7
20260905161000 82 260 0.0 0.9 0.00 1.37 0.01 95 1014.1
20260905160058 82 260 0.0 1.7 0.00 1.37 0.01 95 1013.6
20260905160001 82 260 0.9 1.7 0.00 1.37 0.01 94 1014.0
20260905155002 82 259 0.0 1.7 0.00 1.37 0.01 94 1014.1
20260905154610 82 258 0.0 1.7 0.00 1.37 0.01 93 1013.8
20260905154002 82 258 0.9 1.7 0.00 1.37 0.01 93 1014.1
20260905153058 83 255 0.0 2.6 0.00 1.37 0.01 91 1013.7
20260905153000 83 255 0.9 2.6 0.00 1.37 0.01 91 1014.0
20260905152002 83 239 0.9 2.6 0.00 1.37 0.01 90 1014.0
20260905151558 83 236 0.0 2.6 0.00 1.37 0.01 89 1013.6
20260905151002 82 238 0.9 1.7 0.00 1.37 0.01 91 1014.0
20260905150003 81 236 0.9 3.5 0.00 1.37 0.01 93 1013.9
20260905144558 80 72 0.0 1.7 0.00 1.37 0.01 97 1013.6
20260905144002 80 71 0.9 1.7 0.00 1.37 0.01 99 1013.9
20260905143104 79 71 0.0 0.9 0.00 1.37 0.01 100 1013.6
20260905143002 79 71 0.0 0.9 0.00 1.37 0.01 100 1014.0
20260905142002 79 71 0.0 0.9 0.00 1.37 0.01 100 1013.9
20260905141604 79 71 0.0 0.9 0.00 1.37 0.01 100 1013.6
20260905141002 79 71 0.9 2.6 0.00 1.37 0.01 100 1013.9
20260905140059 79 75 0.9 1.7 0.00 1.37 0.01 100 1013.7
20260905140003 79 75 0.9 2.6 0.00 1.37 0.01 100 1014.0
20260905135002 79 76 0.9 1.7 0.00 1.37 0.01 100 1013.9
20260905134558 79 76 0.9 2.6 0.00 1.37 0.01 100 1013.6
20260905133104 77 76 0.0 1.7 0.00 1.37 0.01 100 1013.5
20260905133001 77 76 0.9 1.7 0.00 1.37 0.01 100 1013.8
20260905132002 77 76 0.9 1.7 0.00 1.37 0.01 100 1013.8
20260905131600 76 76 0.9 1.7 0.00 1.37 0.01 100 1013.5
20260905131000 76 76 0.9 1.7 0.00 1.37 0.01 100 1013.7
20260905130059 75 76 0.0 0.9 0.00 1.37 0.01 100 1013.4
20260905130002 75 76 0.0 0.9 0.00 1.37 0.01 100 1013.8
20260905124559 74 76 0.0 0.0 0.00 1.37 0.01 100 1013.4
20260905124002 74 76 0.0 0.0 0.00 1.37 0.01 100 1013.6
20260905123107 73 76 0.0 0.9 0.00 1.37 0.01 100 1013.2
20260905123002 73 76 0.0 0.9 0.00 1.37 0.01 100 1013.6
20260905122002 73 76 0.0 0.0 0.00 1.37 0.01 100 1013.5
20260905121559 73 76 0.0 0.0 0.00 1.37 0.01 100 1013.3
20260905120100 73 76 0.0 0.0 0.00 1.37 0.01 100 1013.2
20260905115002 74 76 0.0 0.9 0.00 1.37 0.01 100 1013.5
20260905114602 74 76 0.0 1.7 0.00 1.37 0.01 100 1013.1
20260905113058 74 76 0.0 0.0 0.00 1.37 0.01 100 1012.7
20260905113001 74 76 0.0 0.0 0.00 1.37 0.01 100 1013.1
20260905112001 74 76 0.0 0.0 0.00 1.37 0.01 100 1013.0
20260905111558 74 76 0.0 0.0 0.00 1.37 0.01 100 1012.6
20260905110058 74 76 0.0 0.9 0.00 1.37 0.01 100 1012.6
20260905110000 74 76 0.0 0.9 0.00 1.37 0.01 100 1012.9
20260905104558 74 76 0.0 0.9 0.00 1.37 0.01 100 1012.8
20260905104001 74 76 0.0 0.9 0.00 1.37 0.01 100 1013.0
20260905103104 74 76 0.0 0.0 0.00 1.37 0.01 100 1012.8
20260905103001 74 76 0.0 0.0 0.00 1.37 0.01 100 1013.1
20260905102000 74 76 0.0 0.0 0.00 1.37 0.01 100 1013.1
20260905101605 74 76 0.0 0.0 0.00 1.37 0.01 100 1012.8
20260905100959 74 76 0.0 0.9 0.00 1.37 0.01 100 1013.1
20260905100121 74 76 0.0 0.9 0.00 1.37 0.01 100 1012.8
20260905100002 74 76 0.0 0.9 0.00 1.37 0.01 100 1013.1
20260905095002 74 76 0.0 0.9 0.00 1.37 0.01 100 1013.1
20260905094558 74 76 0.0 0.9 0.00 1.37 0.01 100 1012.7
20260905093959 74 76 0.0 0.9 0.00 1.37 0.01 100 1012.8
20260905093057 74 76 0.0 0.9 0.00 1.37 0.01 100 1012.5
20260905093002 74 76 0.0 0.9 0.00 1.37 0.01 100 1012.7
20260905092002 74 76 0.0 1.7 0.01 1.37 0.01 100 1012.8
20260905091606 74 76 0.0 1.7 0.01 1.37 0.01 100 1012.5
20260905091001 74 76 0.0 1.7 0.01 1.37 0.01 100 1012.8
20260905090059 74 76 0.0 0.9 0.01 1.37 0.01 100 1012.5
20260905090000 74 76 0.0 0.9 0.01 1.37 0.01 100 1012.8
20260905084959 74 76 0.9 1.7 0.01 1.37 0.01 100 1012.8
20260905084559 73 76 0.0 1.7 0.01 1.37 0.01 100 1012.6
20260905083959 73 76 0.0 1.7 0.01 1.37 0.01 100 1012.8
20260905083109 73 76 0.9 1.7 0.01 1.37 0.01 100 1012.4
20260905081958 73 76 0.0 0.0 0.00 1.36 0.00 100 1012.7
20260905081600 73 76 0.0 0.0 0.00 1.36 0.00 100 1012.4
20260905080959 73 76 0.0 0.0 0.00 1.36 0.00 100 1012.5
20260905080057 73 76 0.0 0.0 0.00 1.36 0.00 100 1012.3
20260905075959 73 76 0.0 0.0 0.00 1.36 0.00 100 1012.6
20260905074959 74 76 0.0 0.9 0.00 1.36 0.00 100 1012.6
20260905074556 73 76 0.0 0.9 0.00 1.36 0.00 100 1012.3
20260905073959 73 76 0.0 0.9 0.00 1.36 0.00 100 1012.6
20260905073059 73 76 0.0 0.0 0.00 1.36 0.00 100 1012.4
20260905072959 73 76 0.0 0.0 0.00 1.36 0.00 100 1012.7
20260905071959 73 76 0.0 0.9 0.00 1.36 0.00 100 1012.6
20260905071557 73 76 0.0 0.9 0.00 1.36 0.00 100 1012.3
20260905070959 74 76 0.0 0.0 0.00 1.36 0.00 100 1012.6
20260905070059 74 76 0.0 0.0 0.00 1.36 0.00 100 1012.2
20260905070002 74 76 0.0 0.0 0.00 1.36 0.00 100 1012.5
20260905065002 74 76 0.0 0.0 0.00 1.37 0.00 100 1012.3
20260905064616 74 76 0.0 0.0 0.00 1.37 0.00 100 1012.0
20260905064001 74 76 0.0 0.0 0.00 1.37 0.00 100 1012.3
20260905063058 74 76 0.0 0.0 0.00 1.37 0.00 100 1012.0
20260905063002 74 76 0.0 0.0 0.00 1.37 0.00 100 1012.3
20260905062002 74 76 0.0 0.0 0.00 1.37 0.00 100 1012.4
20260905061605 74 76 0.0 0.0 0.00 1.37 0.00 100 1012.1
20260905061002 74 76 0.0 0.0 0.00 1.37 0.00 100 1012.4
20260905060059 74 76 0.0 0.0 0.00 1.37 0.00 100 1012.2
20260905060003 74 76 0.0 0.0 0.00 1.37 0.00 100 1012.5
20260905055004 74 76 0.0 0.0 0.00 1.37 0.00 100 1012.5
20260905054503 74 76 0.0 0.0 0.00 1.37 0.00 100 1012.3
20260905054004 74 76 0.0 0.0 0.00 1.37 0.00 100 1012.6
20260905053101 74 76 0.0 0.0 0.00 1.37 0.00 100 1012.4
20260905053004 74 76 0.0 0.0 0.00 1.37 0.00 100 1012.6
20260905053001 74 76 0.0 0.0 0.00 1.37 0.00 100 1012.4
20260905052004 74 76 0.0 0.9 0.00 1.37 0.00 100 1012.8
20260905051507 74 76 0.0 0.9 0.00 1.37 0.00 100 1012.5
20260905051005 74 76 0.0 0.0 0.00 1.37 0.00 100 1012.8
20260905050007 74 76 0.0 0.0 0.00 1.37 1.37 99 1012.8
20260905050005 74 76 0.0 0.0 0.00 1.37 1.37 99 1012.5
20260905045003 74 76 0.0 0.0 0.00 1.37 1.37 99 1013.0
20260905044608 75 76 0.0 0.0 0.00 1.37 1.37 99 1012.6
20260905044002 75 76 0.0 0.9 0.00 1.37 1.37 99 1013.0
20260905043104 75 76 0.0 0.9 0.00 1.37 1.37 100 1013.0
20260905043003 75 76 0.0 0.9 0.00 1.37 1.37 100 1013.4
20260905042003 75 76 0.0 0.9 0.00 1.37 1.37 100 1013.5
20260905041603 75 76 0.0 0.0 0.00 1.37 1.37 100 1013.2
20260905041003 75 76 0.0 0.0 0.00 1.37 1.37 99 1013.5
20260905040109 75 76 0.0 0.0 0.00 1.37 1.37 99 1013.1
20260905040003 75 76 0.0 0.0 0.00 1.37 1.37 99 1013.1
20260905035003 75 76 0.0 0.0 0.00 1.37 1.37 99 1013.7
20260905034502 75 76 0.0 0.0 0.00 1.37 1.37 99 1013.4
20260905034003 75 76 0.0 0.0 0.00 1.37 1.37 99 1013.8
20260905033102 75 76 0.0 0.9 0.00 1.37 1.37 99 1013.6
20260905033003 75 76 0.0 0.9 0.00 1.37 1.37 99 1013.9
20260905032004 76 76 0.0 0.9 0.00 1.37 1.37 99 1013.9
20260905031603 76 76 0.0 0.9 0.00 1.37 1.37 99 1013.6
20260905031003 76 76 0.0 0.9 0.00 1.37 1.37 99 1013.9
20260905030005 76 76 0.0 1.7 0.00 1.37 1.37 99 1013.5
20260905025002 76 76 0.9 1.7 0.00 1.37 1.37 99 1013.9